Location: Aalen
(48.8330°N, 10.1000°E)
Time: 16:59:12
(UTC+02:00)

Transit 4A - Pass Details

Date: 03 August 2021
Orbit: 871 x 974 km, 66.8° (Epoch: 16 September)

Event Time Altitude Azimuth Distance (km) Brightness Sun altitude
Rises 00:48:43 0° 204° (SSW) 3,488 - -23.1°
Reaches altitude 10° 00:51:14 10° 202° (SSW) 2,541 - -23.2°
Exits shadow 00:55:53 54° 175° (S) 1,057 7.8 -23.3°
Maximum altitude 00:57:02 68° 121° (ESE) 944 7.7 -23.4°
Drops below altitude 10° 01:02:49 10° 39° (NE) 2,528 10.7 -23.5°
Sets 01:05:18 0° 37° (NE) 3,470 11.6 -23.5°
